Overview Statistics Trail Chart Weather Telemetry Raw packets
 

This is the latest recevied weather packets stored in our database for station/object KI5UTS-13. If no packets are shown the sender has not sent any weather packets the latest 10 day(s).

<< 6 7 8 9 10 11 12 >>
Time Temp. Humidity Pressure Rain* Wind** Luminosity Snow
1788521769 23.89° C 98% 1016.1 hPa 0 mm - 0 W/m² -
1788521468 23.89° C 98% 1015.8 hPa 0 mm - 0 W/m² -
1788521164 23.89° C 98% 1015.8 hPa 0 mm - 0 W/m² -
1788520860 23.89° C 98% 1015.8 hPa 0 mm - 0 W/m² -
1788520555 23.89° C 98% 1015.9 hPa 1.78 mm - 0 W/m² -
1788520250 23.89° C 98% 1016 hPa 1.78 mm - 0 W/m² -
1788519945 23.33° C 98% 1016 hPa 3.05 mm - 0 W/m² -
1788519641 23.33° C 98% 1015.9 hPa 1.27 mm - 0 W/m² -
1788519340 23.89° C 98% 1015.8 hPa 3.05 mm - 0 W/m² -
1788519035 23.89° C 98% 1016.1 hPa 9.65 mm - 0 W/m² -
1788518730 23.33° C 98% 1016.1 hPa 16.76 mm - 0 W/m² -
1788518426 23.33° C 97% 1016.2 hPa 25.91 mm - 0 W/m² -
1788518121 22.78° C 97% 1016 hPa 44.45 mm - 0 W/m² -
1788517835 22.78° C 97% 1016.1 hPa 36.58 mm - 0 W/m² -
1788517513 22.78° C 97% 1016.3 hPa 23.88 mm - 0 W/m² -
1788517208 22.78° C 97% 1016.2 hPa 24.64 mm - 0 W/m² -
1788516905 23.33° C 97% 1016.1 hPa 57.66 mm - 0 W/m² -
1788516600 23.89° C 96% 1016.1 hPa 64.26 mm - 0 W/m² -
1788516296 25° C 94% 1016.4 hPa 21.08 mm - 0 W/m² -
1788515995 26.11° C 90% 1015.7 hPa 0 mm - 0 W/m² -
1788515690 26.67° C 92% 1015.7 hPa 0 mm - 0 W/m² -
1788515385 26.67° C 92% 1015.3 hPa 0 mm - 0 W/m² -
1788515080 26.67° C 92% 1015.1 hPa 0 mm - 0 W/m² -
1788514776 26.67° C 92% 1015.1 hPa 0 mm - 0 W/m² -
1788514472 26.67° C 92% 1015.2 hPa 0 mm - 0 W/m² -

* Rain latest hour (hover to see other rain measurements)
** Current wind speed in m/s (hover to see current wind gust speed)